Location: Chemerisskiy
(49.0491°N, 27.5900°E)
Time: 17:40:58
(UTC+00:00)

Daily predictions for brighter satellites

Satellite Brightness Start Highest point End
(mag) Time Altitude Azimuth Time Altitude Azimuth Time Altitude Azimuth
Timation 2 Rocket 4.2 15:17:19 10° NNW 15:23:55 72° ENE 15:30:43 10° SE
GENESIS II 4.4 15:20:01 10° SSW 15:23:59 61° SE 15:27:59 10° NE
Landsat 5 3.6 15:20:12 10° N 15:24:05 76° WNW 15:28:02 10° SSW
CZ-4C R/B 3.6 15:23:00 10° N 15:26:14 57° WNW 15:29:31 10° SSW
Meteor 2-14 Rocket 4.4 15:20:04 10° N 15:26:14 73° ENE 15:32:21 10° SSE
USA 307 3.3 15:22:17 10° WNW 15:26:29 50° NNE 15:30:39 10° E
USA 215 3.9 15:21:03 10° ENE 15:27:11 45° N 15:33:20 10° WNW
ATLAS 2AS CENTAUR R/B 3.9 15:21:05 10° NW 15:27:45 30° NNE 15:34:04 10° ENE
SeaSat 1 4.2 15:25:04 10° ENE 15:27:51 15° NE 15:30:38 10° N
YAOGAN 1 4.0 15:25:08 10° ESE 15:27:59 17° ENE 15:30:51 10° NNE
Cosmos 1939 Rocket 3.7 15:24:45 10° SE 15:28:08 28° ENE 15:31:30 10° N
Cosmos 1331 Rocket 4.1 15:23:17 10° S 15:28:20 60° ESE 15:33:26 10° NNE
Okean O Rocket 1.6 15:25:31 10° SSE 15:29:53 87° ENE 15:34:16 10° NNW
Cosmos 2227 Rocket 2.5 15:25:40 10° NNW 15:31:06 44° NE 15:36:30 10° SE
USA 308 3.3 15:27:12 10° WNW 15:31:25 52° NNE 15:35:36 10° E
Aureole 3 Rocket 4.1 15:28:11 10° SE 15:31:53 30° E 15:36:44 10° NNE
NOAA 12 4.1 15:27:22 10° SSE 15:32:40 86° ENE 15:38:01 10° NNW
Meteor 2-21 4.5 15:27:39 10° N 15:33:51 86° E 15:39:58 10° S
Cosmos 2263 Rocket 4.0 15:31:06 10° N 15:34:09 14° NNE 15:37:12 10° ENE
Cosmos 1408 4.3 15:32:16 10° NNE 15:34:26 15° ENE 15:36:36 10° ESE
Cosmos 1726 Rocket 3.8 15:32:27 10° SSE 15:36:38 48° E 15:40:53 10° NNE
Cosmos 1908 4.0 15:34:18 10° SSW 15:38:04 55° WNW 15:41:54 10° N
Cosmos 1758 Rocket 4.0 15:34:45 10° NNW 15:39:09 68° W 15:43:28 10° S
Cosmos 1892 3.8 15:36:33 10° NNE 15:39:49 25° ENE 15:43:04 10° SE
Cosmos 2228 2.9 15:35:46 10° S 15:39:59 70° E 15:44:16 10° NNE
Helios 1A Rocket 3.8 15:36:35 10° SE 15:40:05 28° ENE 15:43:37 10° N
IRS-1C Rocket 4.3 15:36:53 10° SE 15:41:54 48° ENE 15:46:58 10° N
Cosmos 292 Rocket 3.8 15:37:40 10° S 15:42:23 61° ESE 15:47:10 10° NNE
Cosmos 968 Rocket 3.9 15:37:40 10° NNW 15:42:38 41° ENE 15:47:32 10° SE
Cosmos 1400 Rocket 3.5 15:39:19 10° SSE 15:43:03 34° E 15:46:46 10° NNE
BREEZE-M DEB (TANK) 4.1 15:40:38 10° W 15:44:11 75° N 15:56:34 11° ENE
Cosmos 1697 Rocket 3.9 15:44:25 10° SSE 15:48:27 21° E 15:52:30 10° NE
Lacrosse 5 3.0 15:43:59 10° WNW 15:48:36 34° N 15:53:02 11° ENE
Cosmos 1300 2.6 15:48:14 10° S 15:52:01 71° E 15:55:51 10° NNE
Cosmos 1606 Rocket 3.5 15:48:14 10° S 15:52:36 88° ESE 15:57:04 10° N
SMAP 3.8 15:48:13 10° S 15:52:48 57° W 15:57:24 10° NNW
ADEOS Rocket 3.8 15:47:01 10° N 15:53:19 65° WNW 16:00:18 10° SSW
CZ-4 R/B 2.1 15:50:41 10° SE 15:54:03 29° ENE 15:57:25 10° N
FALCON 9 DEB 3.1 15:51:39 10° SW 15:54:50 60° SSE 15:57:09 17° ENE
Cosmos 2058 3.7 15:52:05 10° N 15:55:39 28° ENE 15:59:12 10° SE
USA 281 3.8 15:50:48 10° SSE 15:57:15 62° WSW 16:03:48 10° NNW
Cosmos 1110 Rocket 4.3 15:52:41 10° SSW 15:57:56 74° WNW 16:03:10 10° NNE
FALCON 9 DEB 3.0 15:54:49 10° SW 15:58:00 67° SSE 16:00:11 18° ENE
Cosmos 1825 3.6 15:55:39 10° NNE 15:58:21 18° ENE 15:59:30 16° E
NOAA 11 4.2 15:54:16 10° SSE 15:59:43 89° W 16:05:11 10° NNW
SAR-Lupe-4 3.7 15:56:15 10° NNE 15:59:46 51° E 16:03:16 10° S
Cosmos 1302 Rocket 4.1 15:54:56 10° S 16:00:05 60° ESE 16:05:19 10° NNE
SKYMED 2 3.9 15:56:17 10° NNE 16:00:28 44° E 16:04:37 10° S
ERBS 4.1 15:59:57 10° NW 16:02:32 20° N 16:04:32 13° NE
Meteor 2-16 Rocket 4.5 15:56:24 10° N 16:02:32 89° W 16:08:38 10° S
CZ-2D R/B 3.5 15:59:08 10° SE 16:02:46 46° ENE 16:06:26 10° N
ERS-2 2.2 15:59:50 10° NNE 16:03:29 77° WNW 16:07:08 10° SSW
SL-4 R/B 1.9 16:01:20 10° WNW 16:04:50 57° N 16:07:12 20° E
Cosmos 1745 Rocket 4.3 15:58:55 10° N 16:04:57 45° ENE 16:11:00 10° SE
Okean-O 2.9 16:00:55 10° SE 16:05:07 45° ENE 16:09:22 10° N
FALCON 9 DEB 3.7 16:02:24 10° WNW 16:05:43 45° N 16:07:39 21° ENE
Cosmos 1346 Rocket 3.3 16:02:24 10° N 16:06:08 37° ENE 16:09:51 10° SE
Cosmos 1486 Rocket 4.0 16:02:10 10° NNW 16:07:30 66° ENE 16:12:47 10° SSE
Cosmos 1340 2.5 16:06:42 10° N 16:10:30 81° ENE 16:14:16 10° SSE
Cosmos 2297 Rocket 2.2 16:05:15 10° NNW 16:10:58 87° WSW 16:16:38 10° SSE
FALCON 9 DEB 2.9 16:08:02 10° WSW 16:11:16 78° SSE 16:13:00 25° ENE
Cosmos 1980 Rocket 3.6 16:08:11 10° SE 16:11:34 17° E 16:11:34 17° E
In-Cosmos 22 Rocket 4.0 16:07:46 10° N 16:13:09 77° ENE 16:18:37 10° SSE
Cosmos 1315 Rocket 3.7 16:12:06 10° SSE 16:15:28 27° E 16:18:10 14° NE
USA 305 2.9 16:12:35 10° WNW 16:16:55 76° NNE 16:19:35 22° ESE
Cosmos 1503 Rocket 4.2 16:12:23 10° NNW 16:17:27 48° ENE 16:22:32 10° SE
SAR-Lupe-1 3.9 16:14:04 10° NNE 16:17:41 79° ESE 16:21:16 10° SSW
Aureole 3 2.5 16:16:30 10° S 16:19:35 87° E 16:22:34 10° N
Cosmos 1689 Rocket 1.9 16:17:47 10° NNE 16:20:41 64° ESE 16:23:32 10° S
FALCON 9 DEB 2.9 16:18:42 10° WSW 16:21:55 86° NNW 16:23:13 33° ENE
CZ-4B R/B 2.5 16:19:12 10° N 16:22:17 44° WNW 16:25:18 10° SW
USA 306 2.8 16:19:03 10° WNW 16:23:22 81° NNE 16:25:47 25° ESE
CZ-2C R/B 3.3 16:22:17 10° SSE 16:27:58 62° ENE 16:33:29 10° N
CZ-4C R/B 3.8 16:22:24 10° NW 16:28:04 30° NNE 16:31:48 20° ENE
Cosmos 2058 Rocket 3.2 16:23:40 10° SSW 16:28:10 81° W 16:32:42 10° N
Cosmos 1354 Rocket 4.1 16:24:28 10° NNW 16:29:38 52° ENE 16:33:46 16° SE
Cosmos 1709 Rocket 4.3 16:28:30 10° N 16:34:36 44° ENE 16:40:39 10° SE
Cosmos 1992 Rocket 4.1 16:32:56 10° S 16:37:58 52° ESE 16:42:31 13° NNE
Meteor 2-10 Rocket 3.4 16:34:10 10° S 16:39:23 64° E 16:44:27 10° NNE
Cosmos 1455 2.2 16:36:19 10° S 16:39:58 50° E 16:42:12 22° NNE
Cosmos 2278 4.4 16:37:49 10° SSE 16:42:42 31° ESE 16:42:51 31° ESE
Cosmos 2219 4.2 16:37:10 10° NW 16:42:43 50° WSW 16:48:13 10° S
Cosmos 1076 Rocket 3.4 16:40:05 10° N 16:44:19 64° ENE 16:48:04 13° SSE
COSMO-SKYMED 1 3.0 16:44:16 10° N 16:48:34 62° WNW 16:52:51 10° SSW
Ariane Rocket 4.0 16:50:34 27° NE 16:50:34 27° NE 16:54:14 10° N
BREEZE-M R/B 3.6 16:46:16 10° W 16:50:18 88° S 16:53:44 32° ESE
Cosmos 2082 3.7 16:45:06 10° NNW 16:50:53 90° WSW 16:56:06 13° SSE
Geosat 4.2 16:49:35 35° ENE 16:51:04 45° ESE 16:55:52 10° S
ATLAS 5 CENTAUR R/B 4.0 16:49:19 10° NW 16:52:19 16° N 16:54:45 12° NNE
Cosmos 44 4.3 16:49:01 10° WSW 16:53:22 41° NW 16:57:04 15° NNE
H-2A R/B 2.0 16:49:31 10° SSE 16:54:56 73° ENE 17:00:24 10° N
S3M 3.8 16:50:43 10° S 16:56:49 84° E 17:03:02 10° N
ARGOS 3.1 16:54:30 25° SE 16:57:37 59° ENE 17:02:58 10° N
NOSS 3-4 (A) 3.9 16:51:23 10° NW 16:58:07 57° NE 17:01:08 35° E
NOSS 3-4 (C) 3.9 16:51:30 10° NW 16:58:13 57° NE 17:01:12 35° E
Cosmos 2315 Rocket 4.1 16:52:33 10° SSE 16:58:24 47° E 17:04:18 10° NNE
SJ-11-01 4.1 16:55:26 14° SSE 16:59:24 79° ENE 17:04:07 10° NNW
CRYOSAT 2 4.2 16:56:07 10° N 17:01:00 77° E 17:05:51 10° S
GEOS 3 Rocket 3.6 17:00:23 36° SE 17:02:42 82° NE 17:08:08 10° NW
Cosmos 1656 4.0 16:57:27 10° SW 17:03:00 67° WNW 17:08:40 10° NNE
YAOGAN 1 3.0 16:59:22 10° S 17:03:38 63° WSW 17:07:58 10° NNW
SeaSat 1 2.5 17:03:39 51° E 17:04:31 59° NE 17:09:23 10° NNW
Cosmos 2369 3.6 17:00:51 10° SSW 17:06:31 67° ESE 17:09:18 31° NE
USA 307 3.2 17:02:25 10° WNW 17:06:39 61° SW 17:07:25 51° SSE
NOSS 3-3 (A) 3.8 17:02:44 10° SSW 17:08:34 73° SE 17:11:34 33° NE
NOSS 3-3 (C) 3.8 17:02:51 10° SSW 17:08:41 72° SE 17:11:38 34° NE
USA 215 3.5 17:07:14 37° ENE 17:09:35 54° NNE 17:15:56 10° WNW
Cosmos 1408 3.6 17:06:12 10° NNW 17:09:43 47° W 17:13:15 10° SSW
Cosmos 1812 Rocket 3.4 17:06:23 10° S 17:10:47 84° E 17:15:11 10° N
USA 308 3.2 17:07:20 10° WNW 17:11:33 57° SW 17:12:08 52° S
Cosmos 2227 Rocket 3.7 17:09:57 10° NW 17:15:04 36° WSW 17:20:10 10° S
CSL-04 Rocket 3.8 17:11:41 10° S 17:17:14 77° WSW 17:22:47 10° NNW
MOS 1 Rocket 3.2 17:13:35 10° NNE 17:18:17 89° E 17:23:16 10° SSW
Cosmos 2263 Rocket 2.4 17:13:59 10° NNW 17:19:27 50° NE 17:19:27 50° NE
ATLAS 2AS CENTAUR R/B 2.9 17:12:44 10° NW 17:20:17 61° NE 17:22:02 48° E
CZ-4 R/B 3.4 17:25:46 10° SSW 17:29:05 26° W 17:32:24 10° NW
Cosmos 2151 4.0 17:25:49 10° N 17:28:26 37° N 17:28:26 37° N
Cosmos 1697 Rocket 2.8 17:26:13 10° SW 17:31:49 72° WNW 17:34:45 29° NNE
Lacrosse 5 2.6 17:27:43 10° NW 17:32:14 41° N 17:32:14 41° N
Cosmos 1825 3.4 17:30:29 10° NNW 17:34:03 39° W 17:34:22 38° WSW
Cosmos 1777 Rocket 4.0 17:29:56 10° NNW 17:34:32 66° N 17:34:32 66° N
Cosmos 44 Rocket 4.1 17:35:16 10° SSW 17:38:24 42° SSW 17:38:24 42° SSW
SL-4 R/B 3.7 17:40:52 10° WNW 17:42:47 29° W 17:42:47 29° W
Cosmos 1980 Rocket 2.7 17:49:17 10° SSW 17:53:26 51° SW 17:53:26 51° SW
CZ-4C R/B 3.0 18:10:52 10° NW 18:17:00 63° N 18:17:00 63° N
SJ 16-02 4.2 18:18:40 10° NNW 18:18:55 11° NNW 18:18:55 11° NNW
ATLAS 5 CENTAUR R/B 4.3 18:34:44 10° NNW 18:36:16 16° NNW 18:36:16 16° NNW
USA 215 4.1 18:54:35 46° WNW 18:54:35 46° WNW 18:59:02 10° WNW
Cosmos 2263 Rocket 4.2 18:58:17 10° NW 19:01:09 25° WNW 19:01:09 25° WNW
ATLAS 2AS CENTAUR R/B 4.0 19:04:12 10° NW 19:09:28 36° W 19:09:28 36° W
